Location: Jetmore
(38.0845°N, 99.8935°W)
Time: 21:53:59
(UTC+00:00)

PSLV R/B - Pass Details

Date: 29 October 2020
Orbit: 504 x 578 km, 97.8° (Epoch: 30 November)

Event Time Altitude Azimuth Distance (km) Brightness Sun altitude
Rises 12:24:33 0° 11° (N) 2,802 7.4 -8.2°
Reaches altitude 10° 12:26:43 10° 10° (N) 1,899 6.6 -7.7°
Maximum altitude 12:30:50 82° 284° (WNW) 588 3.9 -6.9°
Drops below altitude 10° 12:34:54 10° 197° (SSW) 1,871 6.5 -6.2°
Sets 12:37:01 0° 196° (SSW) 2,756 7.4 -5.8°
